{"data":{"norad_id":68378,"epoch":"2026-09-19T13:41:00.470112Z","epoch_age_seconds":152558,"freshness":"FRESH","line1":"1 68378U 26062B   26262.57014433  .00000660  00000+0  34088-4 0  9991","line2":"2 68378  97.4392 268.5408 0001252 111.5377 248.5991 15.19716192 26981","mean_motion":15.19716192,"eccentricity":0.0001252,"inclination_deg":97.4392,"raan_deg":268.5408,"arg_perigee_deg":111.5377,"mean_anomaly_deg":248.5991,"bstar":3.4088e-5,"rev_number":2698,"period_min":94.754534272936,"perigee_km":505.83566400682,"apogee_km":507.559626602,"semimajor_km":6884.8346453044,"source":"CELESTRAK","updated_at":"2026-09-20T09:00:24.166865Z"}}